COSMOS 886 DEB, 14502

Orbit data source: Space-Track

COSMOS 886 DEB, 14502 is space debris in LEO originally from a launch on Mon, 27 Dec 1976 UTC launched from the Tyuratam Missile And Space Complex (TTMTR). Debris objects in space refer to the collection of defunct objects orbiting the Earth. Examples of debris include non-operational satellites, rocket bodies, and fragments generated from explosions, collisions, or faulty payload assembly.

Loading next visibility...
Identifier
14502, 1976-126BP
Orbit
LEO
Country
Flag of CISCIS
Related business
Manufacturer
Unknown
Mission
Spacecraft
Bus & Motor
Unknown
Mass
Unknown
Launch date (UTC)
1976-12-27 (49 years ago)
Launch vehicle
Unknown
Launch site
Tyuratam Missile And Space Complex (TTMTR)
Object type
Payload
Rocket body
Debris
Shape & HBR
Unknown shape, 0.1 m
Radar Cross Section
Medium (>0.1 m² and <1 m²)

Expand to show TLE details & history
Last TLE update: 14 hours ago

TLE from 14 hours ago
0 COSMOS 886 DEB
1 14502U 76126BP  26175.09555681  .00003375  00000-0  10965-2 0  9995
2 14502  65.7763 154.2493 0712674  37.8150  32.5815 13.48776772159008
Epoch: 2026-06-24T02:17Z
TLE epoch observation values (Epoch: 2026-06-24T02:17:36.108Z)
Latitude
61.94236°
Longitude
-95.32226°
Altitude
650.766 km
Speed
7.756 km/s
True Right ascension
14h 05m 20s
True Declination
61° 47' 50"
Sunlit
Object was in daylight at epoch
Visualization orbit readout
Latitude
Unknown
Longitude
Unknown
Altitude
Unknown
Speed
Unknown
Apparent Right ascension
Unknown
Apparent Declination
Unknown
Sunlit
N/A
Visualization observer readout
Local Sidereal Time
03:11:35
Azimuth
Unknown
Elevation
Unknown
Doppler factor
Unknown
Orbital elements
Apogee altitude
1,606.481 km
Perigee altitude
544.107 km
Semi-major axis
7,453.431 km
Eccentricity
0.07127
Inclination
65.7763°
RAAN
154.2493°
Arg. of periapsis
37.815°
True anomaly
37.32937°
Mean anomaly
32.5815°
Eccentric anomaly
34.91886°
Mean motion
3.37294 °/min
Orbital period
106.73 mins
BSTAR
0.0010965
Loading maneuver chart data...
Computing Atmospheric mass density...

Documentation

Showing up to 5 results
|